Location: Treviso
(45.6669°N, 12.2430°E)
Time: 00:42:06
(UTC+02:00)

ISS - Pass Details

Date: 23 May 2017
Orbit: 402 x 408 km, 51.6° (Epoch: 30 May)

Event Time Altitude Azimuth Distance (km) Brightness Sun altitude
Rises 02:48:37 0° 294° (WNW) 2,332 0.0 -19.9°
Reaches altitude 10° 02:50:51 10° 305° (NW) 1,469 -0.9 -19.7°
Maximum altitude 02:53:51 31° 10° (N) 737 -1.9 -19.5°
Drops below altitude 10° 02:56:50 10° 76° (ENE) 1,463 -0.5 -19.3°
Sets 02:59:03 0° 87° (E) 2,320 0.4 -19.1°
